CDT,Max TemperatureF,Mean TemperatureF,Min TemperatureF,Max Dew PointF,MeanDew PointF,Min DewpointF,Max Humidity, Mean Humidity, Min Humidity, Max Sea Level PressureIn, Mean Sea Level PressureIn, Min Sea Level PressureIn, Max VisibilityMiles, Mean VisibilityMiles, Min VisibilityMiles, Max Wind SpeedMPH, Mean Wind SpeedMPH, Max Gust SpeedMPH,PrecipitationIn, CloudCover, Events, WindDirDegrees
2011-10-1,88,73,60,36,31,26,39,23,11,30.22,30.14,30.09,10,10,10,9,5,,0.00,0,,32
2011-10-2,88,71,55,51,36,30,55,30,13,30.22,30.16,30.10,10,10,10,9,3,,0.00,0,,100
2011-10-3,87,72,59,53,44,37,67,39,18,30.22,30.16,30.12,10,10,10,10,3,,0.00,0,,162
2011-10-4,84,70,55,50,44,30,72,41,14,30.23,30.14,30.08,10,10,10,10,3,18,0.00,0,,149
2011-10-5,84,73,64,61,57,51,84,63,38,30.17,30.07,29.95,10,10,9,15,6,24,0.00,3,,155
2011-10-6,87,78,70,66,64,61,84,66,46,30.06,29.96,29.87,10,10,8,16,10,29,0.00,5,,150
2011-10-7,91,82,73,70,66,58,88,65,34,30.05,29.97,29.89,10,10,9,17,12,28,0.00,5,Rain,153
2011-10-8,86,78,71,70,67,64,94,78,53,30.04,29.97,29.86,10,9,2,18,12,38,0.02,7,Rain,143
2011-10-9,73,66,60,68,61,59,96,87,73,30.04,29.99,29.92,10,7,1,17,9,26,2.33,8,Rain,38
2011-10-10,72,66,62,61,60,58,94,84,68,30.11,30.03,29.97,10,10,7,10,4,,0.00,6,,18
2011-10-11,82,70,57,62,59,55,90,70,45,29.98,29.90,29.81,10,10,10,8,2,,0.00,1,,144
2011-10-12,90,77,66,68,64,58,90,70,36,29.88,29.80,29.73,10,10,8,9,5,18,0.00,3,,205
2011-10-13,86,74,61,66,46,32,87,47,15,30.02,29.95,29.90,10,10,8,13,6,17,0.00,0,,8
2011-10-14,87,72,57,47,43,40,62,39,19,30.03,29.96,29.91,10,10,10,8,3,,0.00,0,,139
2011-10-15,87,73,60,56,50,44,75,49,23,30.09,30.03,29.97,10,10,10,8,3,,0.00,0,,163
2011-10-16,87,74,62,63,57,51,93,64,31,30.14,30.04,29.94,10,9,5,9,2,,0.00,1,,184
2011-10-17,89,76,64,63,60,55,93,61,37,29.96,29.82,29.68,10,10,6,16,6,23,0.00,0,,190
2011-10-18,70,63,55,52,36,28,55,36,26,30.12,30.02,29.82,10,10,10,26,15,32,0.00,0,,339
2011-10-19,75,62,51,31,27,23,44,29,16,30.20,30.12,30.04,10,10,10,17,10,29,0.00,0,,333
2011-10-20,78,62,46,43,32,27,58,35,18,30.14,30.07,29.98,10,10,10,15,4,22,0.00,0,,165
2011-10-21,84,72,59,60,54,45,81,55,34,30.12,30.06,30.02,10,10,10,14,7,21,0.00,0,,175
2011-10-22,84,74,64,63,60,56,90,65,40,30.12,30.03,29.94,10,10,10,17,10,26,0.00,2,,181
2011-10-23,89,75,62,60,59,53,86,63,30,30.11,29.99,29.94,10,10,10,12,8,16,0.00,0,,262
2011-10-24,84,72,60,63,58,46,94,68,26,30.22,30.14,30.08,10,8,2,7,4,,0.00,0,,62
2011-10-25,84,73,62,62,57,51,94,62,32,30.14,30.05,29.95,10,9,5,17,6,24,0.00,0,,184
2011-10-26,86,76,66,62,57,53,84,57,33,29.95,29.88,29.81,10,10,10,14,9,22,0.00,0,,180
2011-10-27,69,58,48,63,49,41,90,71,52,30.16,29.98,29.81,10,10,10,17,9,25,0.00,7,Rain,6
2011-10-28,63,56,48,43,38,34,77,60,38,30.32,30.24,30.14,10,10,10,17,11,25,0.00,5,,357
2011-10-29,66,50,36,40,32,27,82,51,24,30.35,30.24,30.10,10,10,10,6,2,,0.00,0,,177
2011-10-30,73,59,45,41,38,30,71,47,28,30.19,30.13,30.08,10,10,10,9,3,20,0.00,0,,172
2011-10-31,79,63,48,52,45,39,74,53,32,30.24,30.17,30.10,10,10,7,9,2,,0.00,0,,177